Vorticity
6 6 6 5 6 8 8 4 6 5 2 4 2 2 4 7 8 9 6 4 4 2 1 1 2 2 5 3 6 4 4 4 3 6 4 6 5 3 1 -0 5 7 2 3 3 5 6
6 6 7 5 6 9 6 5 5 5 5 4 3 3 5 7 6 5 4 3 2 2 3 4 4 4 4 8 6 4 5 8 6 4 5 5 6 1 1 5 3 1 3 1 7 4 0
7 7 6 5 8 11 10 5 7 4 2 2 3 4 6 5 7 5 3 4 5 3 2 2 10 8 5 8 7 5 9 6 1 8 6 6 5 6 7 3 6 2 2 5 3 1 8
6 5 5 6 9 10 8 6 7 7 4 3 6 7 6 4 4 4 5 4 3 7 7 5 2 -1 10 13 11 7 3 7 11 11 10 9 10 5 5 4 5 4 4 2 3 7 -1
5 6 7 9 9 8 6 8 8 8 7 7 4 3 4 5 5 4 0 3 -3 1 2 4 1 -3 10 5 6 10 15 9 12 9 6 6 6 4 9 3 2 7 3 6 7 1 8
5 7 9 11 9 11 7 6 6 4 2 4 1 3 4 5 1 0 4 6 4 6 4 2 6 7 -3 8 14 14 10 8 7 9 7 2 6 6 13 -2 7 3 4 2 7 8 12
7 9 9 9 8 8 7 4 5 3 3 3 5 3 2 1 2 2 4 1 -1 4 2 6 5 -0 5 9 14 7 10 10 5 3 8 2 7 11 7 6 6 5 7 10 16 16 1
7 9 9 8 8 7 6 5 8 4 4 3 0 1 2 3 1 4 7 5 3 10 4 8 10 3 9 6 12 10 10 7 8 5 5 8 3 3 5 6 8 12 12 13 2 20 13
10 10 8 9 9 5 5 4 4 5 3 2 -1 2 2 4 7 9 7 7 6 3 -1 8 5 9 7 15 6 5 10 6 5 7 4 3 5 7 9 10 11 13 4 22 16 19 10
12 10 7 6 6 3 3 3 4 4 4 -1 1 6 6 2 9 6 5 5 5 -1 7 5 11 4 12 7 6 10 6 7 5 3 5 3 8 7 5 10 12 6 31 9 12 13 11
10 8 9 6 7 6 6 4 6 5 -0 2 9 5 6 12 7 7 -0 5 3 11 -10 8 4 8 5 11 10 4 8 2 4 5 6 9 10 12 9 19 19 12 18 17 16 14 19
7 9 11 8 7 7 6 5 5 4 8 5 4 5 8 4 7 8 4 2 7 7 16 12 8 5 11 11 7 3 3 6 3 3 6 7 9 12 17 15 18 16 16 14 17 18 22
7 8 9 9 9 10 12 13 10 8 4 5 10 -2 5 6 5 6 5 10 10 6 12 7 5 8 10 4 2 4 4 2 -1 6 0 0 13 7 21 17 23 22 17 18 26 20 13
7 7 7 6 6 6 6 4 5 5 8 9 11 8 6 6 -1 -2 7 7 6 10 7 5 9 9 5 5 5 5 3 4 5 11 14 14 23 23 27 18 14 20 17 14 12 10 8
7 5 4 4 4 3 2 7 7 5 3 2 0 4 7 -0 4 13 15 9 7 9 8 9 7 3 7 5 5 3 6 6 9 13 22 18 18 25 26 25 22 14 12 13 15 -3 3
4 5 6 6 6 8 8 10 -3 1 6 8 6 1 -3 1 9 11 8 7 9 7 10 9 6 9 5 3 -0 2 9 10 14 23 21 15 14 27 22 24 17 15 25 20 17 25 26
3 8 7 7 9 11 12 2 3 6 3 8 2 7 8 9 11 9 8 11 7 7 9 9 8 4 4 1 2 12 10 9 19 20 23 22 19 20 26 27 22 17 27 20 18 3 2
8 7 7 7 8 3 -1 1 6 7 6 6 6 3 9 9 9 9 10 7 8 5 8 6 4 2 1 5 11 16 17 22 27 21 21 27 23 24 28 31 34 48 28 33 20 14 10
7 5 4 6 6 7 -4 5 2 -2 12 10 13 6 4 7 9 11 5 4 5 9 7 4 2 2 8 13 19 20 25 29 25 27 24 23 15 19 27 31 24 10 1 13 19 22 21
6 2 5 1 8 9 11 4 7 8 4 6 1 8 8 10 6 4 6 7 8 8 4 2 2 7 9 12 16 13 25 27 23 24 27 20 28 29 20 23 37 2 -2 -1 13 9 27
6 3 8 9 -0 7 11 10 9 9 5 6 7 6 5 6 6 8 10 8 7 3 2 1 8 11 11 19 22 23 29 28 25 24 25 18 19 26 15 21 33 41 38 41 11 2 -3
4 4 13 8 4 7 -4 4 1 6 3 6 8 7 9 6 8 10 8 7 3 2 1 6 10 9 18 26 25 37 29 29 28 24 14 10 19 28 19 16 11 -5 4 11 11 28 24
13 7 7 0 4 -2 9 7 11 7 6 9 7 9 6 7 9 10 6 4 3 1 6 9 9 18 26 24 31 25 25 32 13 13 22 14 23 25 7 10 6 17 12 5 4 15 4
10 8 4 9 14 15 11 4 -1 8 9 9 5 8 8 8 10 7 3 2 2 7 10 6 16 27 21 34 27 27 26 20 13 13 24 25 18 15 19 24 7 -1 -2 11 13 13 4
19 12 11 7 6 8 12 9 13 12 10 5 9 7 7 9 8 4 1 3 8 10 12 19 22 24 28 25 26 23 22 21 14 13 20 17 10 0 5 18 20 6 15 17 22 26 23
3 16 11 16 16 13 14 10 13 6 7 8 7 6 9 9 4 1 3 6 9 8 17 17 27 28 25 20 20 24 22 22 23 12 3 -4 3 9 9 -0 9 2 11 10 14 12 12
19 8 8 -1 4 12 13 6 6 8 9 6 6 9 9 4 1 3 6 7 9 14 16 25 23 24 26 19 24 25 19 17 10 4 3 9 2 7 4 7 8 16 22 11 6 11 11
12 13 10 -3 14 8 9 8 10 8 9 6 9 8 5 1 3 6 6 9 12 14 21 23 27 29 26 25 25 22 13 2 5 9 7 1 3 7 13 7 2 9 14 4 10 5 7
8 4 1 9 12 7 8 10 6 7 5 8 8 5 1 3 8 7 7 10 17 26 24 27 26 28 30 23 23 16 5 4 4 2 2 6 6 9 9 8 5 7 8 8 7 5 6
Height
5853 5853 5853 5852 5851 5850 5848 5847 5846 5845 5844 5843 5841 5840 5838 5836 5833 5831 5828 5825 5822 5819 5816 5813 5810 5806 5803 5800 5796 5791 5788 5785 5781 5778 5774 5770 5766 5762 5759 5755 5752 5750 5748 5744 5742 5740 5738
5851 5851 5851 5850 5849 5848 5847 5846 5845 5843 5842 5841 5839 5837 5835 5833 5830 5827 5825 5821 5819 5815 5812 5809 5805 5802 5798 5795 5790 5786 5781 5777 5773 5769 5765 5761 5758 5753 5749 5746 5740 5737 5732 5732 5730 5727 5723
5849 5849 5849 5848 5847 5846 5845 5844 5843 5841 5840 5839 5837 5835 5832 5830 5828 5825 5821 5818 5815 5811 5808 5804 5800 5796 5792 5789 5783 5778 5773 5769 5765 5760 5755 5751 5746 5742 5739 5734 5728 5724 5719 5716 5714 5711 5708
5847 5847 5846 5846 5844 5843 5842 5842 5841 5840 5838 5836 5834 5832 5829 5827 5824 5821 5818 5814 5810 5806 5802 5798 5794 5789 5785 5780 5774 5769 5764 5759 5754 5749 5745 5739 5735 5731 5727 5722 5714 5710 5705 5702 5698 5695 5693
5845 5845 5844 5843 5841 5841 5840 5839 5838 5837 5836 5833 5831 5828 5825 5822 5819 5816 5812 5809 5805 5801 5796 5791 5787 5780 5776 5770 5764 5759 5754 5749 5744 5738 5733 5726 5722 5719 5714 5706 5699 5697 5691 5685 5680 5677 5674
5843 5842 5841 5840 5839 5839 5838 5837 5836 5835 5833 5830 5827 5824 5822 5818 5815 5811 5807 5802 5798 5793 5788 5783 5778 5773 5766 5760 5754 5749 5743 5737 5732 5727 5721 5714 5709 5705 5698 5689 5685 5678 5672 5669 5665 5661 5654
5840 5839 5838 5837 5836 5835 5835 5834 5832 5831 5829 5826 5823 5820 5817 5813 5809 5805 5801 5796 5791 5787 5780 5774 5769 5762 5755 5750 5742 5737 5731 5725 5720 5714 5708 5700 5695 5691 5681 5675 5668 5662 5655 5649 5651 5639 5628
5837 5836 5835 5834 5833 5832 5831 5829 5828 5826 5824 5821 5818 5815 5811 5807 5802 5798 5793 5787 5782 5776 5769 5765 5758 5752 5745 5737 5731 5725 5720 5714 5707 5700 5692 5685 5681 5673 5664 5656 5649 5642 5634 5632 5627 5618 5606
5833 5831 5831 5830 5829 5827 5826 5825 5823 5821 5819 5816 5813 5808 5804 5800 5795 5791 5785 5780 5774 5766 5761 5754 5748 5740 5734 5727 5719 5713 5707 5700 5693 5685 5678 5669 5666 5654 5645 5636 5631 5623 5611 5611 5599 5598 5589
5829 5828 5827 5826 5825 5824 5822 5820 5818 5816 5814 5811 5807 5802 5798 5794 5790 5784 5778 5772 5766 5758 5750 5745 5736 5729 5721 5714 5709 5701 5693 5687 5679 5672 5663 5654 5647 5636 5625 5617 5606 5601 5597 5584 5580 5574 5570
5826 5824 5823 5822 5820 5819 5818 5816 5813 5811 5808 5805 5801 5797 5791 5785 5781 5775 5770 5762 5755 5748 5740 5734 5724 5716 5710 5704 5695 5688 5680 5670 5663 5654 5646 5637 5626 5616 5606 5597 5587 5579 5576 5566 5561 5557 5555
5822 5820 5818 5817 5815 5814 5812 5810 5808 5805 5802 5798 5794 5789 5784 5778 5772 5766 5759 5753 5746 5740 5730 5721 5713 5706 5698 5689 5682 5672 5665 5655 5646 5639 5629 5617 5605 5593 5582 5576 5567 5559 5553 5549 5547 5546 5540
5818 5817 5815 5813 5811 5809 5807 5805 5802 5798 5795 5790 5786 5782 5777 5770 5764 5757 5749 5742 5736 5727 5719 5711 5702 5694 5686 5678 5667 5657 5648 5638 5626 5614 5608 5599 5588 5577 5560 5548 5547 5540 5536 5531 5534 5534 5533
5814 5812 5810 5809 5806 5804 5801 5799 5796 5792 5788 5784 5779 5774 5767 5761 5755 5747 5739 5733 5725 5717 5708 5699 5691 5681 5672 5662 5652 5640 5628 5615 5605 5591 5578 5573 5566 5559 5549 5531 5520 5526 5523 5523 5517 5523 5524
5810 5808 5806 5803 5801 5798 5796 5792 5789 5785 5781 5776 5771 5765 5759 5752 5745 5737 5730 5722 5714 5705 5696 5687 5678 5667 5657 5644 5631 5621 5608 5594 5582 5570 5557 5538 5543 5534 5526 5515 5507 5507 5510 5506 5505 5511 5511
5805 5803 5800 5798 5796 5793 5789 5785 5782 5778 5774 5769 5763 5756 5750 5743 5735 5728 5720 5712 5703 5693 5683 5674 5663 5654 5641 5629 5617 5602 5587 5571 5557 5543 5527 5514 5503 5517 5505 5498 5498 5486 5490 5494 5494 5495 5500
5799 5796 5794 5792 5789 5786 5784 5779 5775 5771 5765 5759 5753 5747 5740 5733 5725 5717 5708 5700 5691 5682 5672 5661 5650 5638 5625 5613 5600 5584 5568 5548 5535 5523 5507 5493 5482 5485 5483 5481 5473 5476 5472 5477 5481 5485 5488
5794 5792 5789 5786 5783 5780 5777 5772 5767 5762 5756 5750 5744 5737 5730 5722 5716 5706 5698 5689 5680 5669 5658 5647 5636 5623 5608 5594 5581 5565 5547 5529 5512 5496 5488 5481 5469 5463 5465 5463 5461 5460 5459 5464 5467 5470 5477
5787 5785 5782 5779 5777 5773 5769 5765 5760 5754 5748 5742 5735 5728 5721 5714 5705 5697 5688 5677 5667 5657 5646 5634 5621 5607 5591 5575 5559 5545 5527 5512 5497 5484 5471 5464 5459 5451 5453 5455 5454 5452 5453 5453 5456 5458 5465
5781 5778 5775 5772 5769 5765 5761 5757 5752 5746 5739 5733 5726 5718 5711 5703 5694 5685 5675 5665 5654 5645 5634 5621 5606 5591 5575 5560 5540 5523 5510 5496 5482 5471 5463 5456 5452 5447 5444 5442 5446 5448 5447 5447 5449 5452 5455
5773 5770 5767 5764 5760 5756 5752 5747 5742 5736 5730 5724 5716 5708 5699 5690 5683 5674 5664 5654 5643 5631 5620 5607 5590 5572 5556 5541 5527 5510 5495 5485 5470 5462 5455 5451 5448 5445 5442 5441 5441 5442 5441 5439 5441 5444 5445
5765 5762 5759 5755 5752 5748 5744 5738 5733 5727 5720 5713 5705 5697 5689 5681 5672 5663 5652 5643 5631 5618 5607 5592 5575 5556 5538 5523 5504 5496 5483 5474 5465 5457 5452 5448 5445 5442 5440 5441 5440 5439 5439 5438 5438 5437 5436
5758 5755 5751 5747 5743 5739 5734 5729 5723 5717 5711 5703 5694 5687 5680 5670 5661 5652 5641 5630 5619 5605 5591 5576 5559 5543 5525 5509 5493 5481 5472 5464 5458 5454 5451 5447 5443 5441 5441 5440 5439 5439 5437 5436 5434 5432 5431
5750 5748 5743 5739 5734 5729 5725 5719 5713 5707 5701 5694 5686 5679 5670 5660 5650 5639 5629 5618 5605 5591 5575 5559 5543 5526 5514 5498 5485 5475 5468 5462 5457 5452 5449 5446 5443 5441 5440 5439 5439 5437 5434 5432 5430 5429 5428
5741 5738 5735 5731 5726 5720 5715 5709 5703 5697 5691 5684 5677 5669 5660 5650 5640 5629 5618 5605 5589 5573 5557 5541 5528 5515 5501 5491 5480 5473 5468 5464 5456 5452 5449 5447 5445 5443 5441 5439 5438 5435 5433 5430 5428 5427 5423
5732 5729 5726 5722 5717 5711 5706 5701 5694 5687 5681 5675 5667 5659 5650 5640 5629 5617 5606 5592 5577 5559 5543 5528 5515 5502 5492 5483 5473 5467 5463 5461 5457 5453 5451 5449 5446 5444 5441 5439 5437 5434 5431 5427 5425 5422 5419
5722 5719 5715 5711 5706 5701 5696 5691 5685 5679 5672 5665 5657 5648 5639 5629 5618 5606 5593 5578 5564 5548 5533 5517 5503 5492 5483 5476 5471 5467 5463 5461 5459 5456 5454 5451 5449 5445 5442 5439 5436 5432 5428 5425 5423 5422 5417
5715 5711 5707 5702 5698 5695 5689 5682 5675 5668 5662 5654 5647 5638 5629 5618 5606 5593 5579 5565 5550 5535 5520 5507 5498 5486 5479 5473 5470 5467 5463 5461 5459 5457 5455 5452 5449 5444 5440 5435 5432 5429 5427 5423 5420 5416 5412
5706 5703 5699 5693 5688 5683 5679 5673 5666 5658 5651 5643 5636 5626 5616 5605 5593 5579 5566 5551 5537 5522 5509 5497 5490 5482 5476 5472 5469 5467 5464 5462 5460 5458 5454 5451 5447 5443 5439 5435 5429 5425 5422 5419 5416 5412 5408